Regional Weather Roundup
Issued by NWS Charleston, SC

Current Version | Previous Version | Graphics & Text | Print | Product List | Glossary On
Versions: 1 2 3 4 5 6 7 8 9 10 11 12 13 14 15 16 17 18 19 20 21 22 23 24 25 26 27 28 29 30 31 32 33 34 35 36 37 38 39 40 41 42 43 44 45 46 47 48 49 50
000
ASUS42 KCHS 200825
RWRCHS

REGIONAL WEATHER ROUNDUP
NATIONAL WEATHER SERVICE CHARLESTON SC
400 AM EDT MON OCT 20 2014

NOTE: "FAIR" INDICATES FEW OR NO CLOUDS BELOW 12,000 FEET WITH NO
SIGNIFICANT WEATHER AND/OR OBSTRUCTIONS TO VISIBILITY.

NOT ALL STATIONS ARE QUALITY CONTROLLED BY THE NATIONAL
WEATHER SERVICE. USE DATA WITH CAUTION...ESPECIALLY
DEWPOINT OBSERVATIONS.

SCZ027-030-031-034>040-042>050-200900-
...SOUTH CAROLINA...

CITY           SKY/WX    TMP DP  RH WIND       PRES   REMARKS
N CHARLESTON   PTCLDY    54  50  86 CALM      30.12F
WATERFRONT PRK   N/A     63 N/A N/A N5          N/A
FORT JOHNSON   NOT AVBL
JOHNS ISLAND   PTSUNNY   55  55 100 CALM      30.12S
PINOPOLIS        N/A     59  48  67 SE2       30.05R
MONCKS CORNER  FAIR      48  48 100 CALM      30.13S
SUMMERVILLE    FAIR      46  46 100 CALM      30.13F
BEAUFORT MCAS  PTCLDY    53  50  89 CALM      30.12F
BEAUFORT ARPT  FAIR      54  54 100 CALM      30.11S
HILTON HEAD IS   N/A     54  52  94 CALM      30.12F
GEORGETOWN     NOT AVBL
WALTERBORO     SUNNY     46 N/A N/A CALM      30.13S
ORANGEBURG     CLEAR     47  44  90 CALM      30.13S
BARNWELL       FAIR      45  45 100 CALM      30.13S
AIKEN          FAIR      45  45 100 CALM      30.15S
MANNING        FAIR      45 N/A N/A CALM      30.13S
KINGSTREE      NOT AVBL
COLUMBIA       CLEAR     47  43  86 CALM      30.12S
SUMTER         CLEAR     46  45  96 CALM      30.12S
FLORENCE       CLEAR     47  43  86 CALM      30.13F
MYRTLE BEACH   CLEAR     52  45  76 CALM      30.13F
N MYRTLE BEACH CLEAR     47  44  90 CALM      30.14S

$$

GAZ063-065-086>088-099>101-113>116-118-119-134-136>141-150-200900-
...GEORGIA...

CITY           SKY/WX    TMP DP  RH WIND       PRES   REMARKS
SAVANNAH ARPT  PTCLDY    53  48  83 CALM      30.12F
HUNTER AAF     MOCLDY    53  52  95 CALM      30.09F
FORT STEWART   PTCLDY    48  46  94 N1        30.09F
STATESBORO     NOT AVBL
SYLVANIA       SUNNY     49  49  99 CALM      30.12F
CLAXTON        FAIR      45  45 100 CALM      30.11F
THOMSON        PTCLDY    46  46 100 CALM      30.16R
AUGUSTA-BUSH   PTCLDY    42  41  96 CALM      30.12S
AUGUSTA-DANIEL PTCLDY    54  50  86 CALM      30.12S
SWAINSBORO     FAIR      50  50 100 MISG      30.12R
VIDALIA        CLEAR     52  52 100 CALM      30.11S
ALMA           CLEAR     48  47  96 CALM      30.09F FOG
WAYCROSS       PTCLDY    53  53  99 CALM      30.08F
JESUP          FAIR      52  50  93 CALM      30.09F
BRUNSWICK      CLEAR     52  50  93 CALM      30.09F
SAINT SIMONS   CLEAR     56  56 100 N3        30.08F

$$

SCZ027-028-034-036>038-045-046-048>050-GAZ119-141-200900-
...LAKE AND SUPPLEMENTAL COASTAL OBSERVATIONS...

STATION/POSITION TIME  TEMP    WIND        PRES    WAVE   SWELL
                       AIR SEA DIR/SP/G            HT/PER HT/PER/DIR
                 (UTC) (F)     (DEG/KT/KT) (MB)    (FT/S) (FT/S/D)
UPR LAKE MARION  NOT AVBL
WINYAH BAY       0800   53     310/  2     1020.0S
LAKE MURRAY      0700   59     150/  4/  5 1019.3F
ACE BASIN NERRS  0800   52        CALM     1019.0S
FORT PULASKI     0800   64     320/  3/  3 1019.7F
SAPELO ISLAND    NOT AVBL

$$

ANZ835-935-AMZ111-154-330-350-352-354-374-450-454-472-200900-
...C-MAN AND BUOY OBSERVATIONS...

STATION/POSITION TIME  TEMP    WIND        PRES    WAVE   SWELL
                       AIR SEA DIR/SP/G            HT/PER HT/PER/DIR
                 (UTC) (F)     (DEG/KT/KT) (MB)    (FT/S) (FT/S/D)
FOLLY BEACH CMAN 0800   64      10/  7/ 10 1020.3F
BUOY 41004       0800   69 80  100/  6/ 10 1019.3F   2/11   2/11
BUOY 41008       0800   71 76  100/  8/ 10 1018.7F   3/ 6   2/ 70/ 6
5E ST. MARYS GA  0800      77                N/A     3/13   2/100/13
FRYING PAN BUOY  0800   66 75  100/  8/ 12 1021.0F   2/11   2/120/11
BUOY 41025       0800   61     350/  6/ 10 1020.3R   4/12   3/ 60/12
CAPE LOOKOUT NC  0800   60     360/  7/  8 1020.4R
BUOY 41002       0750   70 80   50/  8/ 12 1019.3S   5/ 8   5/ 10/ 8
BUOY 41010       0800   76 81   40/ 12/ 16 1016.8F   5/ 7   3/360/ 7
BUOY 41012       NOT AVBL
ST AUGUSTINE FL  0800   75      90/  8/  9 1017.9F
CAPERS NEARSHORE 0700   66     350/  8/ 10   N/A
FRIPP NEARSHORE  NOT AVBL


$$


USA.gov is the U.S. government's official web portal to all federal, state and local government web resources and services.